Date/Time (UTC),ProbHail,ProbWind,ProbTor,MESH,VIL Density,Flash Rate,Max Flash Density,LJA sigma-level,Max 0-2km AzShear,LLAZ 98th%,MLAZ 98th%,MUCAPE,MLCAPE,CAPE -10C to -30C,MLCIN,SRH 0-1km AGL,EBShear,MeanWind 0-1km AGL,Norm. Sat. Growth Rate,PWAT,WBZ,AvgBeamHgt,size
2019/05/23 02:56,0,1,1,0.00,0.40,0,0.00,0.0,1,1,4,3105,2355,606,5,113,38.1,40.8,0,2.1,3779.5200000000004,1200.0,48
2019/05/23 02:58,0,1,1,0.13,0.90,0,0.00,0.0,2,1,2,3110,2338,604,5,114,38.2,40.9,0,2.1,3779.5200000000004,1210.0,94
2019/05/23 03:00,0,1,1,0.13,0.90,1,0.03,0.0,3,2,2,3060,2305,598,5,113,38.1,40.9,0,2.1,3779.5200000000004,1230.0,80
2019/05/23 03:02,0,1,1,0.14,1.10,1,0.05,0.0,3,2,2,3057,2263,592,6,113,38.6,41.3,0,2.1,3779.5200000000004,1280.0,108
2019/05/23 03:04,1,6,1,0.56,1.90,1,0.06,0.0,3,2,2,3045,2227,586,6,112,39.8,41.5,0,2.0,3779.5200000000004,1330.0,113
2019/05/23 03:06,2,6,1,0.56,1.90,2,0.10,0.0,3,2,2,3025,2201,581,7,111,40.9,41.6,0,2.0,3779.5200000000004,1360.0,61
2019/05/23 03:08,2,6,1,0.56,1.90,2,0.10,0.0,2,2,4,3003,2177,582,7,112,41.5,41.8,0,2.0,3779.5200000000004,1370.0,202
2019/05/23 03:10,0,5,1,0.30,1.60,4,0.12,0.0,3,2,3,2976,2138,578,7,111,42.8,41.8,0,2.0,3779.5200000000004,1410.0,213
2019/05/23 03:12,1,5,1,0.28,1.60,4,0.12,0.0,2,2,3,2870,2039,562,7,108,46.7,41.9,0,2.0,3749.0400000000004,1490.0,54
2019/05/23 03:14,1,20,2,0.33,2.00,4,0.12,0.0,4,3,4,2908,2059,573,7,111,46.2,42.1,0,2.0,3749.0400000000004,1480.0,206
2019/05/23 03:16,1,20,2,0.33,2.00,7,0.14,0.0,4,3,3,2891,2019,575,7,112,48.2,42.4,0,2.0,3688.08,1520.0,223
2019/05/23 03:18,1,29,2,0.33,2.00,10,0.16,0.0,4,3,5,2870,1973,577,7,113,50.1,42.6,0,2.0,3627.1200000000003,1570.0,210
2019/05/23 03:20,1,21,2,0.44,1.50,10,0.16,0.0,4,3,5,2848,1935,577,7,113,51.0,42.7,0,2.0,3627.1200000000003,1600.0,227
2019/05/23 03:22,2,21,2,0.44,1.50,10,0.25,0.0,4,3,5,2860,1920,586,7,116,52.2,43.1,0,2.0,3566.16,1630.0,107
2019/05/23 03:24,1,29,2,0.44,2.00,10,0.25,1.8,4,3,3,2719,1737,568,9,104,52.1,42.2,0,2.0,3657.6000000000004,1740.0,365
2019/05/23 03:26,5,48,2,0.59,2.30,18,0.35,2.4,5,3,3,2713,1706,571,9,101,52.6,42.2,0,2.0,3657.6000000000004,1770.0,403
2019/05/23 03:28,8,40,3,0.66,2.30,18,0.40,0.0,6,4,4,2741,1752,573,10,106,52.8,42.8,0,2.0,3596.6400000000003,1780.0,395
2019/05/23 03:30,14,63,6,0.78,2.30,22,0.40,1.0,7,6,6,2986,1907,614,9,124,54.0,44.3,0,2.0,3474.7200000000003,1770.0,269
2019/05/23 03:32,14,78,22,0.78,2.30,22,0.40,0.0,12,7,6,3024,1913,618,9,126,54.3,44.5,0,2.0,3474.7200000000003,1810.0,198
2019/05/23 03:34,17,81,43,0.78,2.40,28,0.40,2.0,13,10,5,3030,1902,619,10,126,54.4,44.7,0,2.0,3474.7200000000003,1840.0,232
2019/05/23 03:36,19,81,48,0.78,2.40,28,0.40,0.0,13,10,7,3040,1896,620,10,127,54.5,44.8,0,2.0,3474.7200000000003,1870.0,225
2019/05/23 03:38,25,92,48,0.78,2.40,37,0.40,2.9,13,10,7,3047,1880,622,11,128,54.8,45.0,0,2.0,3474.7200000000003,1930.0,229
2019/05/23 03:40,21,81,39,0.74,2.30,37,0.40,0.0,12,9,7,3035,1861,621,12,128,54.7,45.1,0,2.0,3474.7200000000003,1980.0,253
2019/05/23 03:42,10,80,39,0.54,1.90,37,0.40,0.1,12,9,5,3020,1841,622,14,129,54.8,45.3,0,2.0,3444.2400000000002,2040.0,274
2019/05/23 03:44,12,81,50,0.54,1.80,44,0.56,1.9,12,9,8,2978,1803,619,17,129,54.8,45.5,0,2.0,3444.2400000000002,2110.0,231
2019/05/23 03:46,35,88,52,0.87,2.00,44,0.56,0.0,12,9,8,2985,1815,622,19,132,55.2,45.7,0,2.0,3444.2400000000002,2150.0,281
2019/05/23 03:48,35,94,31,0.89,2.00,45,0.61,0.9,9,8,8,2963,1807,623,21,133,55.6,45.7,0,2.0,3444.2400000000002,2190.0,294
2019/05/23 03:50,35,91,27,0.89,2.00,45,0.61,0.0,9,7,7,2946,1816,624,23,135,56.1,45.8,0,2.0,3444.2400000000002,2260.0,300
2019/05/23 03:52,24,84,9,0.89,2.10,45,0.61,0.0,9,6,6,2430,1692,517,38,117,40.6,43.8,0,2.0,3779.5200000000004,2290.0,300
2019/05/23 03:54,35,94,7,1.04,2.50,45,0.61,0.0,9,6,6,2519,1765,536,42,129,40.8,44.1,0,2.0,3779.5200000000004,2220.0,176
2019/05/23 03:56,31,88,5,1.07,2.60,34,0.61,1.0,8,6,6,2452,1748,526,40,121,40.2,44.2,0,2.0,3779.5200000000004,2400.0,312
2019/05/23 03:58,27,85,6,1.20,2.60,24,0.61,0.0,8,6,7,2569,1842,549,43,135,40.4,44.4,0,2.0,3779.5200000000004,2310.0,192
2019/05/23 04:00,27,85,6,1.20,2.80,22,0.61,0.8,7,6,7,2589,1865,556,43,138,40.2,44.6,0,2.0,3779.5200000000004,2360.0,224
2019/05/23 04:02,31,92,17,1.20,2.80,25,0.61,0.4,8,8,9,2589,1889,560,43,138,40.1,44.7,0,2.0,3779.5200000000004,2420.0,206
2019/05/23 04:04,31,95,63,1.14,2.80,31,0.61,0.9,13,11,11,2624,1932,574,42,141,39.6,45.0,0,1.9,3810.0,2500.0,223
2019/05/23 04:06,31,92,72,1.15,2.50,31,0.61,0.0,13,12,12,2647,1961,585,41,143,39.4,45.2,0,1.9,3810.0,2550.0,273
2019/05/23 04:08,40,97,73,1.15,2.50,39,0.61,1.7,13,12,11,2671,1992,597,40,146,39.2,45.5,0,1.9,3810.0,2590.0,277
2019/05/23 04:10,51,97,73,1.15,2.50,57,0.79,6.4,13,12,12,2694,2019,608,39,149,39.1,45.6,0,1.9,3810.0,2620.0,275
2019/05/23 04:12,38,91,67,0.97,2.10,57,0.79,0.0,12,11,8,2710,2047,621,38,151,39.0,45.8,0,1.9,3810.0,2670.0,300
2019/05/23 04:14,46,94,68,1.07,2.40,57,0.79,0.0,12,11,9,2725,2076,632,37,153,38.7,46.0,0,1.9,3779.5200000000004,2730.0,280
2019/05/23 04:16,61,95,48,1.28,2.70,57,0.79,0.0,12,9,8,2732,2098,639,36,155,38.5,46.2,0,1.9,3779.5200000000004,2780.0,276
2019/05/23 04:18,70,95,42,1.57,3.00,40,0.79,0.6,8,8,7,2739,2120,646,35,156,38.2,46.4,0,1.9,3749.0400000000004,2820.0,321
2019/05/23 04:20,78,95,33,1.57,3.00,55,0.79,1.2,8,8,6,2743,2132,648,35,157,38.0,46.4,0,1.9,3749.0400000000004,2810.0,359
2019/05/23 04:22,78,95,40,1.57,3.00,55,0.79,0.0,10,8,9,2756,2167,660,33,160,37.7,46.7,0,1.9,3688.08,2820.0,393
2019/05/23 04:24,78,95,35,1.56,3.50,55,0.79,0.8,10,8,9,2756,2185,664,32,161,37.5,46.9,0,1.9,3627.1200000000003,2840.0,427
2019/05/23 04:26,76,95,40,1.51,3.50,55,0.79,0.0,10,8,9,2756,2182,662,32,161,37.5,46.9,0,1.9,3627.1200000000003,2850.0,391
2019/05/23 04:28,76,95,69,1.51,3.50,54,0.79,1.3,13,9,10,2774,2238,677,31,166,37.0,47.3,0,1.9,3596.6400000000003,2860.0,384
2019/05/23 04:30,73,95,80,1.50,3.50,54,0.79,0.0,13,11,10,2775,2257,683,30,168,36.7,47.6,0,1.9,3566.16,2840.0,330
2019/05/23 04:32,69,95,80,1.39,3.20,59,0.79,1.5,13,11,12,2792,2288,690,29,172,36.6,47.7,0,1.9,3535.68,2800.0,356
2019/05/23 04:34,56,97,80,1.18,3.10,59,0.79,0.0,13,11,11,2787,2295,694,28,173,36.4,48.0,0,1.9,3535.68,2740.0,337
2019/05/23 04:36,56,97,73,1.17,2.70,59,0.79,1.1,12,10,12,2774,2291,694,28,172,36.3,48.1,0,1.9,3535.68,2700.0,312
2019/05/23 04:38,48,97,77,1.08,2.50,59,0.79,0.0,12,10,9,2768,2290,694,27,172,36.2,48.1,0,1.9,3535.68,2690.0,283
2019/05/23 04:40,25,93,78,0.83,2.50,52,0.79,0.6,12,10,9,2770,2291,699,27,172,36.1,48.3,0,1.9,3535.68,2650.0,273
2019/05/23 04:42,25,93,84,0.82,2.30,52,0.75,0.0,14,11,12,2758,2287,698,26,171,35.9,48.5,0,1.9,3535.68,2610.0,238
2019/05/23 04:44,18,91,86,0.77,2.30,45,0.75,0.0,14,11,10,2762,2291,703,24,173,35.8,48.7,0,1.9,3535.68,2520.0,290
2019/05/23 04:46,7,90,87,0.54,2.30,45,0.75,0.0,15,13,9,2770,2299,707,23,175,35.6,48.8,0,1.9,3535.68,2470.0,276
2019/05/23 04:48,9,90,82,0.54,2.30,52,0.75,2.0,15,13,9,2773,2299,711,22,176,35.4,49.0,0,1.9,3535.68,2380.0,246
2019/05/23 04:50,11,83,81,0.57,2.00,52,0.75,0.0,15,13,8,2770,2291,711,21,175,35.2,49.1,0,1.9,3535.68,2340.0,261
2019/05/23 04:52,11,83,52,0.57,2.00,52,0.75,0.0,10,8,7,2769,2285,712,20,175,35.2,49.1,0,1.9,3535.68,2320.0,286
2019/05/23 04:54,11,87,36,0.57,2.00,54,0.75,1.9,10,8,5,2782,2283,716,18,176,35.1,49.4,0,2.0,3535.68,2220.0,306
2019/05/23 04:56,11,78,12,0.57,2.00,54,0.75,0.0,8,5,5,2793,2288,719,17,178,35.2,49.4,0,2.0,3535.68,2190.0,305
2019/05/23 04:58,9,81,22,0.54,2.00,54,0.75,0.0,5,5,10,2774,2276,715,17,174,35.0,49.4,0,2.0,3535.68,2210.0,245
2019/05/23 05:00,7,83,17,0.59,2.00,54,0.75,0.0,5,5,16,2311,1585,544,26,198,28.2,46.9,0,2.0,3749.0400000000004,2150.0,279
2019/05/23 05:01,8,84,17,0.61,2.00,54,0.75,0.4,5,5,19,2341,1615,552,25,198,28.7,47.1,0,2.0,3749.0400000000004,2090.0,297
2019/05/23 05:04,2,72,15,0.61,2.00,21,0.75,0.0,5,4,5,2351,1622,553,25,198,28.8,47.2,0,2.0,3749.0400000000004,2080.0,279
2019/05/23 05:06,3,69,15,0.61,2.00,21,0.75,0.4,5,4,5,2404,1686,569,24,194,29.3,47.7,0,2.0,3718.56,1960.0,299
2019/05/23 05:08,6,62,3,0.82,2.10,21,0.67,0.0,5,4,5,2444,1716,576,23,195,29.4,47.7,0,2.0,3718.56,1940.0,322
2019/05/23 05:10,6,63,6,0.85,2.40,17,0.67,1.0,8,5,3,2472,1748,581,23,195,29.5,48.0,0,2.0,3688.08,1890.0,313
2019/05/23 05:12,6,62,6,0.85,2.40,17,0.67,0.0,8,5,3,2516,1783,589,22,195,29.4,48.3,0,2.0,3657.6000000000004,1830.0,329
2019/05/23 05:14,7,58,6,0.85,2.40,19,0.67,0.8,7,5,3,2542,1810,596,22,193,29.4,48.5,0,2.0,3627.1200000000003,1790.0,274
2019/05/23 05:16,3,62,5,0.55,2.10,25,0.67,2.6,7,5,3,2570,1843,601,21,194,29.3,48.7,0,2.0,3596.6400000000003,1740.0,282
2019/05/23 05:18,2,53,5,0.52,2.10,25,0.67,0.0,7,5,3,2572,1849,600,21,189,29.3,48.9,0,2.0,3596.6400000000003,1710.0,311
2019/05/23 05:20,2,47,5,0.52,2.00,25,0.67,0.0,7,5,3,2582,1868,600,21,187,29.3,49.0,0,2.0,3566.16,1670.0,295
2019/05/23 05:22,2,62,5,0.46,2.40,25,0.67,0.0,6,5,3,2586,1873,596,20,183,29.2,49.2,0,2.0,3535.68,1640.0,309
2019/05/23 05:24,1,65,9,0.41,2.40,24,0.67,0.0,10,6,3,2601,1882,593,20,181,29.1,49.3,0,2.0,3535.68,1620.0,306
2019/05/23 05:26,1,48,9,0.41,2.40,14,0.45,0.2,10,6,4,2655,1934,586,19,175,28.5,49.8,0,2.0,3535.68,1520.0,269
2019/05/23 05:28,1,33,9,0.34,1.70,15,0.41,1.0,10,6,3,2671,1942,579,19,172,28.3,50.0,0,2.0,3535.68,1490.0,221
2019/05/23 05:30,1,29,9,0.35,1.80,15,0.45,0.0,10,6,3,2673,1948,579,19,172,28.3,49.9,0,2.0,3535.68,1500.0,207
2019/05/23 05:32,1,33,9,0.35,1.80,16,0.52,1.4,10,6,3,2675,1949,567,19,168,28.2,50.1,0,2.0,3505.2000000000003,1480.0,260
2019/05/23 05:34,1,29,4,0.35,1.80,16,0.52,0.0,5,5,3,2680,1956,567,19,167,28.2,50.1,0,2.0,3505.2000000000003,1480.0,256
2019/05/23 05:36,0,22,4,0.26,1.50,16,0.52,0.5,7,4,3,2669,1924,564,18,164,28.1,50.2,0,2.0,3535.68,1470.0,601
2019/05/23 05:38,1,32,3,0.47,1.60,16,0.52,0.0,7,4,4,2746,2018,567,18,164,27.5,50.5,0,2.0,3505.2000000000003,1400.0,238
2019/05/23 05:40,1,35,5,0.53,2.00,14,0.52,0.0,8,5,4,2763,2044,572,18,165,27.3,50.6,0,2.0,3505.2000000000003,1370.0,209
2019/05/23 05:42,1,44,6,0.53,2.00,14,0.52,1.4,8,5,4,2704,2019,582,18,166,27.4,50.6,0,2.0,3505.2000000000003,1360.0,730
2019/05/23 05:44,3,72,11,0.59,2.50,26,0.52,2.5,12,5,4,2717,2056,593,18,171,27.3,50.7,0,2.0,3535.68,1340.0,764
2019/05/23 05:46,2,60,13,0.59,2.50,26,0.52,0.0,10,6,4,2735,2092,600,18,173,26.7,50.9,0,2.0,3505.2000000000003,1290.0,677
2019/05/23 05:48,3,60,17,0.59,2.50,29,0.81,1.1,10,7,4,2796,2136,606,18,177,25.7,51.3,0,2.0,3535.68,1210.0,255
2019/05/23 05:50,2,65,25,0.51,1.80,29,0.81,0.0,14,8,4,2799,2156,611,17,178,25.1,51.5,0,2.0,3535.68,1180.0,251
2019/05/23 05:52,2,83,65,0.46,1.90,29,0.81,0.0,14,8,14,2805,2180,621,17,180,24.8,51.6,0,2.0,3535.68,1170.0,279
2019/05/23 05:54,2,84,65,0.48,1.90,29,0.81,1.1,14,8,13,2807,2213,635,17,184,24.1,51.8,0,2.0,3535.68,1120.0,330
2019/05/23 05:56,1,68,67,0.48,1.90,19,0.81,0.0,14,8,14,2805,2221,640,17,185,23.8,51.9,0,2.0,3535.68,1090.0,296
2019/05/23 05:58,1,81,64,0.48,1.90,19,0.81,0.0,14,8,14,2354,1287,442,23,173,33.0,43.9,0,1.9,3779.5200000000004,1020.0,290
2019/05/23 06:00,1,81,64,0.48,1.90,20,0.81,1.1,14,8,7,2415,1346,451,21,178,33.1,44.2,0,1.9,3779.5200000000004,980.0,300
2019/05/23 06:02,1,81,47,0.50,1.90,20,0.81,0.0,11,7,6,2426,1365,452,21,179,33.2,44.3,0,1.9,3779.5200000000004,960.0,329
2019/05/23 06:04,1,76,75,0.50,1.90,20,0.81,0.6,14,11,9,2493,1438,462,18,186,33.9,44.9,0,1.9,3779.5200000000004,890.0,286
2019/05/23 06:06,2,68,77,0.50,1.80,24,0.81,0.7,14,11,9,2522,1480,470,17,189,34.5,45.1,0,1.9,3779.5200000000004,870.0,294
2019/05/23 06:08,3,78,81,0.43,1.80,41,0.81,2.7,16,11,9,2529,1510,474,16,190,35.2,45.3,0,1.9,3779.5200000000004,840.0,305
2019/05/23 06:10,3,64,78,0.43,1.80,41,0.81,0.0,16,11,8,2575,1578,486,14,196,35.8,45.7,0,1.9,3749.0400000000004,810.0,320
2019/05/23 06:12,7,73,78,0.57,1.70,41,0.81,0.4,16,11,8,2591,1610,491,13,198,36.3,45.9,0,1.9,3749.0400000000004,780.0,305
2019/05/23 06:14,7,81,70,0.57,1.80,41,0.81,0.0,10,9,9,2621,1682,504,12,202,37.5,46.3,0,1.9,3749.0400000000004,740.0,280
2019/05/23 06:16,5,73,70,0.57,1.90,32,0.81,1.0,10,9,9,2680,1779,521,10,207,38.4,46.8,0,2.0,3779.5200000000004,680.0,306
2019/05/23 06:18,11,89,65,0.65,2.10,51,0.81,1.5,13,9,9,2687,1811,526,10,208,38.7,47.0,0,2.0,3779.5200000000004,660.0,308
2019/05/23 06:20,11,85,70,0.65,2.10,51,0.80,0.0,13,9,14,2718,1870,539,9,210,39.3,47.4,0,2.0,3810.0,620.0,360
2019/05/23 06:22,11,89,70,0.65,2.10,51,0.80,0.0,13,9,13,2734,1913,546,8,211,39.5,47.6,0,2.0,3810.0,590.0,334
2019/05/23 06:24,7,91,77,0.54,2.00,51,0.80,0.0,13,10,9,2730,1931,549,8,211,39.5,47.7,0,2.0,3810.0,570.0,332
2019/05/23 06:26,8,91,77,0.63,2.00,40,0.80,0.7,13,10,15,2811,2036,575,7,215,39.6,48.2,0,2.0,3810.0,520.0,381
2019/05/23 06:28,14,89,77,0.63,2.00,58,0.80,1.6,13,10,15,2846,2078,586,7,217,39.6,48.4,0,2.0,3810.0,500.0,392
2019/05/23 06:30,13,85,77,0.63,1.70,58,0.80,0.0,13,10,15,2844,2105,592,7,217,39.6,48.6,0,2.0,3810.0,480.0,379
2019/05/23 06:32,14,89,89,0.62,1.70,58,0.80,0.0,25,11,16,2909,2232,631,5,221,39.2,49.2,0,2.0,3779.5200000000004,420.0,324
2019/05/23 06:34,11,92,89,0.57,2.40,58,0.80,1.1,25,11,13,2920,2267,643,5,222,39.0,49.3,0,2.0,3779.5200000000004,390.0,354
2019/05/23 06:36,23,93,89,0.85,2.60,43,0.80,0.0,25,11,13,2931,2304,658,5,223,38.8,49.4,0,2.0,3779.5200000000004,370.0,339
2019/05/23 06:38,23,93,82,0.85,2.60,43,0.80,0.2,25,9,11,2939,2378,696,4,227,38.2,49.9,0,2.0,3779.5200000000004,300.0,311
2019/05/23 06:40,23,93,75,0.85,2.60,43,0.80,1.2,12,8,13,2940,2414,715,4,229,37.9,50.2,0,2.0,3779.5200000000004,270.0,354
2019/05/23 06:42,14,85,64,0.71,2.00,43,0.80,0.0,12,8,13,2935,2419,720,4,229,37.9,50.4,0,2.0,3779.5200000000004,270.0,337
2019/05/23 06:44,12,85,68,0.69,1.80,43,0.80,0.2,12,8,13,2932,2455,736,4,230,37.3,50.8,0,2.0,3779.5200000000004,230.0,287
2019/05/23 06:46,6,86,92,0.53,1.70,43,0.80,0.0,23,12,17,2919,2468,744,3,231,36.9,51.0,0,2.0,3749.0400000000004,210.0,269
2019/05/23 06:48,14,85,92,0.82,1.60,36,0.80,0.5,23,12,17,2910,2474,746,3,231,36.8,51.0,0,2.0,3749.0400000000004,200.0,258
2019/05/23 06:50,15,85,92,0.82,1.60,36,0.63,0.0,19,14,16,2908,2491,754,3,231,36.0,51.3,0,2.0,3688.08,180.0,224
2019/05/23 06:52,24,90,91,0.82,1.60,52,0.64,3.2,19,14,16,2910,2497,757,3,231,35.8,51.3,0,2.0,3688.08,180.0,268
2019/05/23 06:54,17,85,89,0.80,1.40,52,0.64,0.0,19,14,17,2648,2216,648,10,258,30.2,47.3,0,2.1,3718.56,180.0,239
2019/05/23 06:56,11,86,88,0.70,1.30,52,0.73,1.5,19,13,17,2708,2271,669,8,255,29.3,47.8,0,2.1,3718.56,170.0,228
2019/05/23 06:58,11,86,88,0.70,1.30,52,0.73,0.0,20,14,14,2685,2249,665,8,256,29.3,47.7,0,2.1,3718.56,170.0,223
2019/05/23 07:00,9,86,88,0.70,1.50,46,0.73,0.0,20,14,14,2668,2230,662,9,255,29.1,47.9,0,2.1,3718.56,180.0,215
2019/05/23 07:02,9,84,88,0.66,1.50,46,0.73,0.7,20,14,9,2818,2412,702,5,235,28.6,49.2,0,2.0,3718.56,200.0,449
2019/05/23 07:04,4,63,87,0.64,1.50,31,0.73,0.0,20,11,10,2802,2408,703,5,231,27.9,49.5,0,2.0,3749.0400000000004,220.0,239
2019/05/23 07:06,4,68,56,0.61,1.50,31,0.73,0.6,13,7,10,2847,2466,713,5,224,28.0,49.9,0,2.0,3749.0400000000004,250.0,266
2019/05/23 07:08,3,69,48,0.54,1.50,31,0.73,0.0,13,7,10,2925,2560,729,5,217,28.4,50.5,0,2.0,3749.0400000000004,270.0,298
2019/05/23 07:10,2,69,45,0.54,1.50,30,0.73,0.9,13,7,8,2979,2620,739,5,211,28.7,50.9,0,2.0,3749.0400000000004,300.0,299
2019/05/23 07:12,3,69,20,0.56,1.50,30,0.73,0.0,8,5,8,2990,2630,741,5,209,28.9,51.0,0,2.0,3749.0400000000004,310.0,293
2019/05/23 07:14,3,65,12,0.59,1.50,30,0.73,0.3,8,5,7,3116,2759,763,4,203,29.8,51.9,0,2.0,3718.56,370.0,227
2019/05/23 07:16,5,72,40,0.59,1.60,37,0.73,1.6,15,6,9,3157,2797,772,4,202,29.9,52.1,0,2.0,3718.56,390.0,229
2019/05/23 07:18,5,64,52,0.60,1.60,37,0.73,0.0,9,8,9,3207,2842,780,4,202,30.0,52.4,0,2.0,3688.08,410.0,214
2019/05/23 07:20,10,73,54,0.72,1.90,37,0.73,0.0,9,8,7,3270,2896,793,5,200,30.0,52.7,0,2.0,3657.6000000000004,430.0,184
2019/05/23 07:22,10,80,28,0.72,1.90,37,0.73,0.4,9,8,7,3299,2925,800,5,200,30.0,52.7,0,2.0,3627.1200000000003,440.0,215
2019/05/23 07:24,5,65,19,0.72,1.90,23,0.73,0.0,9,8,7,3351,2968,815,6,201,29.9,52.8,0,2.0,3596.6400000000003,450.0,239
2019/05/23 07:26,5,65,16,0.69,2.10,26,0.73,0.4,8,7,7,3398,3010,832,7,202,29.8,53.0,0,2.0,3596.6400000000003,480.0,242
2019/05/23 07:28,6,86,14,0.72,3.00,26,0.66,0.0,8,7,7,3414,3022,838,7,202,29.8,53.1,0,2.0,3596.6400000000003,490.0,240
2019/05/23 07:30,7,85,14,0.77,3.00,26,0.66,0.5,8,7,7,3440,3040,847,7,203,29.7,53.2,0,2.0,3596.6400000000003,510.0,256
2019/05/23 07:32,9,88,27,0.78,3.00,28,0.66,0.6,8,6,22,3469,3068,862,7,205,29.7,53.3,0,2.0,3596.6400000000003,530.0,250
2019/05/23 07:34,9,83,46,0.78,2.30,28,0.66,0.5,11,7,22,3479,3085,868,8,207,29.5,53.2,0,2.0,3596.6400000000003,530.0,246
2019/05/23 07:36,10,84,46,0.78,2.30,32,0.66,2.5,11,7,22,3511,3095,879,7,207,29.6,53.8,0,2.0,3596.6400000000003,590.0,243
2019/05/23 07:38,15,90,46,0.74,2.30,46,0.70,9.1,11,7,8,3538,3101,888,5,207,29.6,54.2,0,2.0,3566.16,640.0,199
2019/05/23 07:40,15,86,24,0.74,2.10,46,0.70,0.0,8,5,10,3551,3109,895,5,210,29.5,54.3,0,2.0,3566.16,650.0,208
2019/05/23 07:42,17,81,20,0.73,2.00,46,0.70,0.3,8,5,6,3577,3116,909,4,214,29.4,54.8,0,2.0,3566.16,730.0,227
2019/05/23 07:44,17,86,20,0.73,2.00,46,0.70,0.4,8,5,8,3594,3124,918,3,217,29.3,54.9,0,2.0,3566.16,760.0,203
2019/05/23 07:46,18,78,9,0.73,2.00,49,0.70,1.1,7,4,7,3596,3124,919,3,218,29.3,55.0,0,2.0,3566.16,780.0,191
2019/05/23 07:48,15,69,9,0.66,2.00,49,0.70,0.0,7,4,6,3606,3125,928,2,221,29.2,55.1,0,2.0,3566.16,830.0,204
2019/05/23 07:50,14,69,7,0.66,2.00,49,0.70,0.0,7,4,5,3613,3125,933,2,225,29.1,55.2,0,2.0,3566.16,860.0,179
2019/05/23 07:52,6,66,6,0.54,2.00,49,0.70,0.0,6,4,5,2641,1945,533,33,303,29.1,50.6,0,2.0,3566.16,870.0,178
2019/05/23 07:54,3,63,4,0.54,2.00,31,0.70,0.0,6,4,5,2644,1965,535,33,303,29.5,50.9,0,2.0,3566.16,920.0,134
2019/05/23 07:56,3,63,3,0.53,1.90,31,0.70,1.3,4,4,4,2653,2006,539,32,304,29.9,51.0,0,2.0,3566.16,950.0,183
